This is the latest recevied weather packets stored in our database for station/object ON7XX-13. If no packets are shown the sender has not sent any weather packets the latest 10 day(s).
| Time | Temp. | Humidity | Pressure | Rain* | Wind** | Luminosity | Snow |
|---|---|---|---|---|---|---|---|
| 1777293227 | 24.44° C | 35% | 1023.3 hPa | - | - | - | - |
| 1777292612 | 24.44° C | 35% | 1023.5 hPa | - | - | - | - |
| 1777291998 | 23.89° C | 35% | 1023.5 hPa | - | - | - | - |
| 1777291384 | 23.89° C | 35% | 1023.6 hPa | - | - | - | - |
| 1777290770 | 23.33° C | 36% | 1023.7 hPa | - | - | - | - |
| 1777290155 | 23.33° C | 37% | 1023.8 hPa | - | - | - | - |
| 1777289541 | 22.78° C | 36% | 1023.8 hPa | - | - | - | - |
| 1777288927 | 22.22° C | 38% | 1024 hPa | - | - | - | - |
| 1777288313 | 22.22° C | 38% | 1024.1 hPa | - | - | - | - |
| 1777287699 | 21.67° C | 38% | 1024.3 hPa | - | - | - | - |
| 1777287084 | 21.67° C | 41% | 1024.3 hPa | - | - | - | - |
| 1777286470 | 21.11° C | 42% | 1024.4 hPa | - | - | - | - |
| 1777285855 | 20.56° C | 43% | 1024.4 hPa | - | - | - | - |
| 1777285241 | 20° C | 44% | 1024.5 hPa | - | - | - | - |
| 1777284627 | 20° C | 46% | 1024.5 hPa | - | - | - | - |
| 1777284013 | 19.44° C | 49% | 1024.6 hPa | - | - | - | - |
| 1777283399 | 18.89° C | 50% | 1024.6 hPa | - | - | - | - |
| 1777282784 | 18.33° C | 51% | 1024.7 hPa | - | - | - | - |
| 1777282170 | 17.22° C | 56% | 1024.7 hPa | - | - | - | - |
| 1777281556 | 16.67° C | 56% | 1024.8 hPa | - | - | - | - |
| 1777280942 | 16.11° C | 56% | 1024.7 hPa | - | - | - | - |
| 1777280327 | 15.56° C | 63% | 1025 hPa | - | - | - | - |
| 1777279713 | 15° C | 65% | 1024.9 hPa | - | - | - | - |
| 1777279099 | 14.44° C | 69% | 1025 hPa | - | - | - | - |
* Rain since midnight (hover to see other rain measurements)
** Current wind speed in m/s (hover to see current wind gust speed)